Regional Weather Roundup
Issued by NWS Raleigh/Durham, NC

Home | Current Version | Previous Version | Text Only | Print | Product List | Glossary On
Versions: 1 2 3 4 5 6 7 8 9 10 11 12 13 14 15 16 17 18 19 20 21 22 23 24 25 26 27 28
000
ASUS42 KRAH 042310
RWRRAH
NORTH CAROLINA WEATHER ROUNDUP
NATIONAL WEATHER SERVICE RALEIGH NC
700 PM EDT WED MAY 04 2016

NOTE: "FAIR" INDICATES FEW OR NO CLOUDS BELOW 12,000 FEET WITH NO
SIGNIFICANT WEATHER AND/OR OBSTRUCTIONS TO VISIBILITY.

NCZ001-053-055-056-065-067-050000-
WESTERN NORTH CAROLINA

CITY           SKY/WX    TMP DP  RH WIND       PRES   REMARKS
ASHEVILLE      CLOUDY    62  35  36 NE3       29.68R
JEFFERSON      CLOUDY    55  34  45 W8        29.68S
MORGANTON      MOSUNNY   68  35  30 S3        29.68S
HICKORY        SUNNY     67  38  34 W8        29.64S
RUTHERFORDTON  CLOUDY    68  37  31 NW6       29.65S
MOUNT AIRY     PTSUNNY   67  42  40 W5        29.65S
BOONE          PTSUNNY   56  34  42 NW12G18   29.70R
$$

NCZ021-022-025-041-071-084-088-050000-
CENTRAL NORTH CAROLINA

CITY           SKY/WX    TMP DP  RH WIND       PRES   REMARKS
CHARLOTTE      MOSUNNY   69  40  34 W9        29.64S
GREENSBORO     MOSUNNY   68  42  38 W8        29.62S
WINSTON-SALEM  MOSUNNY   66  41  40 NW5       29.64S
RALEIGH-DURHAM MOSUNNY   70  49  47 W5        29.62S
FORT BRAGG     SUNNY     74  49  41 NW7       29.58S
FAYETTEVILLE   SUNNY     75  47  36 W6        29.58F
BURLINGTON     SUNNY     69  44  40 W7        29.62R
LAURINBURG     SUNNY     74  50  42 W5        29.60F
$$

NCZ011-015-027-028-043-044-047-080-103-050000-
NORTHEASTERN NORTH CAROLINA

CITY           SKY/WX    TMP DP  RH WIND       PRES   REMARKS
ROCKY MT-WILSO SUNNY     72  53  51 NW7       29.59F
GREENVILLE     SUNNY     73  55  53 W7        29.62S
WASHINGTON     CLOUDY    72  62  70 N5        29.58S
ELIZABETH CITY MOCLDY    62  58  86 NE15      29.62S
MANTEO         CLOUDY    58  57  98 NE12G18   29.63R
CAPE HATTERAS  MOCLDY    69  65  86 CALM      29.59R
$$

NCZ078-087-090-091-093-098-101-050000-
SOUTHEASTERN NORTH CAROLINA

CITY           SKY/WX    TMP DP  RH WIND       PRES   REMARKS
LUMBERTON      SUNNY     75  52  44 W5        29.58S
GOLDSBORO      SUNNY     75  52  44 NW8       29.57F
KINSTON        SUNNY     75  55  50 N8        29.58F
KENANSVILLE    MOSUNNY   74  50  43 NW6       29.60S
NEW BERN       CLOUDY    73  57  57 NW7       29.58F
CHERRY POINT   CLOUDY    69  66  90 E6        29.58F
BEAUFORT       CLOUDY    71  64  78 W9        29.57S
JACKSONVILLE   MOSUNNY   74  58  57 NW8       29.57S
WILMINGTON     CLOUDY    77  54  44 NW10      29.57S
$$





USA.gov is the U.S. government's official web portal to all federal, state and local government web resources and services.